RH
22 22 21 21 21 21 21 20 19 18 17 16 15 15 14 14 13 12 13 13 13 13 12 11 10 10 11 12 13 13 14 16 16 15 14 13 12 11 10 9 8 8 10 11 10 9 10 10 10 10 9 9 8 8 8 9 10 10 13 14 14 16 15 15 15 16 17 18 17 19 20 20 23 24 22 26 31 33 39 46 49 48 47 47 44 44 53 59
23 23 22 22 21 21 20 20 20 19 18 16 16 15 15 15 14 13 13 14 14 14 14 12 11 11 11 12 12 14 15 16 16 15 15 13 13 12 10 9 8 8 10 9 9 8 8 8 9 9 9 10 9 9 8 9 10 10 13 13 12 13 13 13 13 15 18 18 18 17 17 20 23 26 25 28 35 35 38 47 53 53 50 47 44 44 53 64
25 24 24 23 22 21 21 21 20 19 18 17 16 15 15 15 15 14 14 14 15 14 14 13 13 12 11 12 12 15 16 16 16 15 15 13 13 11 9 8 7 8 8 8 8 7 8 8 10 10 9 9 9 9 9 9 11 11 12 13 12 12 12 12 12 14 17 16 17 16 16 20 24 27 28 31 36 38 36 42 52 53 51 48 48 54 57 66
27 26 26 25 24 22 21 21 20 20 19 18 17 16 16 16 15 15 14 14 15 15 15 14 14 13 13 13 14 16 18 18 16 15 14 14 13 10 9 8 7 8 8 7 8 8 9 9 9 10 8 8 9 9 10 10 12 12 12 13 13 13 12 12 12 14 15 15 16 15 15 18 24 28 31 34 35 38 37 39 51 51 48 48 47 51 51 58
27 27 28 28 26 25 23 22 22 21 20 19 18 17 16 16 16 15 15 15 15 16 16 15 15 15 14 14 15 16 19 21 18 15 15 14 11 10 10 9 8 8 8 8 9 9 10 9 9 10 9 8 9 11 11 12 12 12 13 13 13 13 13 12 11 13 14 15 15 14 14 15 23 28 31 34 34 38 36 36 51 52 43 43 41 39 41 51
26 26 27 28 27 27 26 25 24 23 22 20 19 18 17 17 16 16 16 15 16 16 16 16 16 16 16 16 16 17 20 23 20 16 14 12 10 10 10 9 9 8 8 9 9 10 10 9 10 10 10 9 10 11 11 11 11 12 13 14 14 14 14 13 11 12 12 13 14 13 13 13 19 26 30 33 34 37 36 33 44 51 42 40 44 41 43 52
24 25 26 26 27 27 26 26 25 25 24 22 20 19 18 18 18 17 17 17 17 17 18 17 17 17 18 19 20 21 23 25 21 16 13 11 10 10 9 9 9 8 9 9 9 9 9 9 10 10 9 9 10 11 11 11 11 11 14 14 15 15 15 14 11 11 11 12 13 12 12 12 14 21 28 32 34 37 38 34 36 45 45 44 50 50 52 56
22 23 24 25 26 26 26 25 24 23 23 23 21 19 19 19 19 19 18 18 18 19 19 18 18 19 20 21 23 26 27 25 21 16 13 11 10 10 9 9 8 8 9 9 9 9 10 10 9 9 9 9 9 10 10 11 12 13 14 14 14 15 14 13 12 11 11 11 13 13 13 12 13 17 24 30 35 37 38 38 34 38 42 44 51 54 57 61
22 21 21 23 25 26 26 25 24 22 22 23 21 20 20 20 20 20 20 20 20 20 19 19 20 21 22 24 25 27 26 20 18 17 14 11 11 10 9 9 9 8 9 9 9 9 10 10 10 9 9 8 8 10 10 10 12 13 12 13 15 14 12 12 12 11 11 12 13 15 14 13 13 15 20 28 35 37 37 40 38 37 38 41 48 50 50 54
24 23 21 21 21 23 25 25 24 22 22 22 21 20 20 21 21 21 21 21 21 21 21 21 22 23 25 25 25 28 24 19 17 16 15 13 12 11 11 11 10 9 9 8 9 9 9 10 10 10 8 8 9 9 10 10 12 13 11 12 14 13 12 11 11 12 13 14 13 13 14 13 13 14 18 25 33 36 36 40 42 40 38 37 40 41 40 42
26 25 23 22 20 20 21 23 23 22 22 21 21 20 21 22 22 22 22 23 23 23 23 22 23 25 26 24 27 30 24 20 18 15 14 14 13 12 12 11 10 9 9 8 8 8 8 9 10 10 9 9 9 9 10 10 11 12 11 12 13 14 15 15 14 15 16 16 15 12 13 12 12 12 15 21 28 33 34 37 42 43 41 37 37 38 38 38
26 26 25 24 22 20 19 20 20 20 21 20 20 20 20 21 22 23 23 23 24 24 24 24 24 26 26 25 29 30 25 23 20 16 14 14 13 12 12 12 11 10 9 9 9 8 8 9 9 9 9 9 9 11 11 11 12 13 13 14 16 17 18 17 17 18 18 18 17 15 16 14 13 13 15 19 24 27 31 33 37 42 45 41 39 39 39 39
27 26 26 26 25 24 21 19 19 19 20 20 19 19 19 20 21 22 22 23 24 25 26 27 27 28 27 27 29 29 27 24 20 17 16 15 14 13 12 13 13 11 10 10 9 8 9 9 9 8 8 9 10 11 12 13 14 14 14 16 17 19 20 19 19 19 19 20 20 19 21 19 15 14 15 18 20 22 26 29 30 36 41 41 40 40 41 43
28 27 27 27 27 26 24 21 19 18 19 20 20 19 19 19 20 21 22 23 24 26 29 31 32 32 31 31 31 30 29 26 21 18 18 18 17 15 14 14 13 12 11 10 9 9 9 10 10 8 8 9 10 13 15 17 17 15 16 17 17 19 21 19 20 22 19 20 22 21 23 23 19 16 14 15 18 20 23 25 26 29 33 37 41 41 41 41
29 28 27 28 28 27 26 24 21 17 18 20 21 20 20 19 20 21 22 23 25 28 30 32 33 35 35 33 33 32 30 28 23 20 20 19 18 17 15 13 13 13 12 11 11 11 11 11 10 10 10 10 11 16 20 21 21 19 19 22 21 19 22 20 20 24 23 24 25 22 23 26 24 20 16 15 16 18 20 21 22 23 25 31 36 38 39 39
31 29 29 29 28 28 27 26 24 19 17 20 21 21 21 20 21 21 22 25 27 29 31 32 34 35 37 36 33 33 32 29 25 23 22 19 17 17 15 14 14 13 13 13 13 14 14 14 13 14 16 16 17 20 22 24 24 23 22 25 26 22 24 23 22 26 28 28 26 22 23 26 24 23 21 21 19 17 18 17 17 19 21 25 28 30 32 34
30 30 29 29 29 29 29 27 26 22 17 18 21 21 22 22 24 24 25 26 28 30 32 34 33 34 36 35 33 34 32 30 27 26 24 20 17 17 15 15 15 14 14 14 15 17 17 18 18 20 23 23 22 22 25 26 26 29 29 29 29 26 26 25 24 28 29 30 27 23 24 25 25 25 24 24 24 24 23 21 21 23 24 25 25 25 25 26
30 30 29 30 30 30 30 29 28 25 19 18 20 22 25 28 30 31 30 29 30 31 34 36 35 37 37 33 33 33 32 31 30 28 26 22 18 16 15 15 16 15 15 16 17 20 21 21 21 24 26 27 28 27 28 29 29 31 32 32 30 27 26 25 25 28 28 29 29 25 23 25 27 28 26 26 25 27 28 26 27 28 27 26 25 26 26 26
29 30 30 30 30 30 30 30 29 27 23 21 21 25 28 31 32 34 35 35 34 34 37 39 39 40 37 33 31 32 31 31 30 29 26 22 19 18 17 17 17 17 17 20 24 24 22 22 25 26 27 29 33 31 28 29 30 28 28 31 31 28 27 26 24 26 27 29 30 29 26 25 26 27 27 27 26 26 28 28 27 27 28 28 28 29 30 29
29 29 30 31 31 32 32 31 31 30 29 28 26 27 30 31 33 36 36 36 37 37 39 40 40 38 36 35 33 32 32 31 30 29 27 23 20 20 20 19 19 18 20 25 29 28 23 25 29 29 28 31 36 33 28 27 27 26 26 28 29 27 27 26 27 29 31 32 34 34 30 28 27 29 30 28 29 31 31 30 28 27 28 28 29 29 30 30
38 33 30 30 31 32 33 32 32 33 33 32 29 28 30 32 34 37 36 34 34 38 40 41 41 40 37 35 35 33 32 30 29 30 29 25 21 21 21 21 20 20 23 25 28 28 25 27 29 28 28 31 35 35 30 27 27 26 27 29 30 32 32 31 31 34 33 33 37 38 35 34 33 33 33 31 32 36 36 34 32 31 29 29 30 30 30 32
48 43 37 34 32 32 34 34 33 33 34 33 31 29 29 30 33 36 37 36 34 35 38 40 41 41 37 36 36 34 32 30 29 31 31 28 24 22 23 23 22 22 24 23 25 27 28 28 27 27 28 31 33 33 30 29 28 26 29 32 34 36 39 40 39 39 38 35 38 40 39 41 39 35 34 34 35 35 33 33 33 32 32 32 34 35 35 37
52 50 46 42 38 33 33 36 35 34 35 34 33 30 28 28 30 33 37 38 35 32 34 37 41 41 39 37 36 34 33 32 31 32 31 29 27 26 24 23 22 22 23 23 25 27 29 30 29 28 30 31 33 32 29 29 29 30 34 35 36 38 41 44 43 40 39 39 39 40 40 42 42 40 37 36 37 37 35 35 35 35 36 37 39 40 41 43
52 52 51 48 46 40 35 36 37 37 37 36 35 32 28 27 28 32 36 38 36 34 34 35 39 41 41 39 37 36 35 33 32 33 33 32 30 28 25 22 21 22 24 25 27 28 28 29 29 30 32 33 34 32 29 27 30 36 40 37 37 39 40 41 42 38 35 39 40 40 41 42 44 44 41 39 40 40 39 38 38 38 39 41 42 44 45 44
50 52 53 52 51 46 40 37 38 39 39 37 35 32 29 27 27 33 38 39 39 38 37 38 40 42 42 40 38 39 38 36 34 34 35 33 30 27 25 23 21 23 28 29 30 30 28 28 29 30 33 34 33 32 30 29 32 40 43 39 36 38 39 41 42 40 38 40 42 38 39 46 48 46 45 44 43 43 41 39 39 39 40 43 45 48 47 45
45 49 52 53 53 50 45 41 41 40 40 38 35 33 32 27 28 34 38 43 46 43 42 42 43 43 43 43 41 40 41 39 36 36 36 34 30 27 26 24 21 25 31 31 31 31 29 29 29 30 32 34 34 34 34 34 34 39 42 39 37 37 38 39 39 40 42 43 44 40 40 48 49 46 46 45 45 45 44 45 43 40 41 42 46 49 49 48
43 46 48 50 53 53 49 44 43 44 43 42 37 36 33 27 29 35 42 53 54 46 44 45 45 45 45 46 44 43 44 42 38 37 36 34 33 30 29 27 23 27 32 32 32 32 29 30 31 32 34 36 38 38 37 34 34 39 40 37 36 35 34 36 35 39 42 42 46 49 47 48 49 50 51 47 47 48 46 47 47 45 44 44 45 50 51 51
42 42 43 46 50 54 52 45 45 47 46 43 39 36 32 29 32 37 47 59 55 44 45 46 46 47 47 46 46 46 46 43 42 42 38 36 35 31 31 29 26 30 33 33 33 31 29 30 34 37 38 39 41 42 38 33 34 39 39 35 35 33 32 34 35 41 46 46 53 59 53 51 54 56 55 50 49 51 49 49 49 47 46 45 47 49 51 51
37 36 36 39 44 53 54 49 47 49 48 44 39 36 33 31 34 42 55 62 54 46 47 48 47 48 49 49 49 48 46 44 45 44 41 39 36 34 35 33 28 32 37 37 34 30 28 30 32 36 40 43 44 44 40 36 38 41 39 38 39 40 39 40 42 47 52 52 55 58 54 56 61 61 56 52 51 51 50 50 48 45 44 45 47 48 49 50
35 34 35 36 40 49 56 54 51 49 48 43 38 35 35 35 39 53 67 66 56 49 48 49 49 50 51 52 53 51 49 47 47 45 42 40 38 37 39 37 31 33 40 41 36 31 28 27 30 34 38 41 45 47 43 38 39 40 40 41 43 50 52 53 55 54 56 59 55 53 55 58 62 63 58 55 53 50 48 49 47 45 44 45 47 47 48 49
37 37 38 40 41 45 53 57 54 48 45 39 35 36 39 42 50 65 72 66 60 57 52 54 57 56 56 57 57 53 48 48 48 48 46 43 41 39 39 42 39 40 46 46 40 38 34 31 33 36 39 42 46 49 44 40 40 40 45 47 48 55 57 57 61 59 59 64 58 54 56 55 59 64 62 59 56 51 48 50 49 47 47 46 47 47 47 47
37 37 35 34 37 39 44 52 51 46 43 38 39 42 44 49 59 71 71 64 63 64 59 60 64 63 61 60 57 51 48 49 49 50 52 49 45 40 40 46 47 48 53 53 47 44 41 39 38 38 40 42 45 49 46 43 45 46 53 56 54 57 57 58 61 58 58 60 56 54 54 52 56 59 56 55 55 55 54 53 51 51 50 48 49 50 48 49
38 38 35 31 31 33 37 44 46 45 44 43 46 49 48 54 66 72 71 65 66 70 66 64 66 64 61 59 56 52 49 50 49 50 52 51 47 43 43 47 48 48 53 55 52 47 43 43 41 39 42 42 44 51 51 50 50 49 51 54 55 57 60 66 65 58 58 58 54 53 51 51 53 48 47 48 50 54 56 54 54 55 52 50 50 51 52 52
42 40 39 37 34 34 39 43 45 45 44 45 52 55 52 59 69 71 69 66 67 70 69 67 67 66 61 60 60 56 54 54 48 47 51 50 48 48 49 50 48 48 53 55 53 50 47 46 45 43 44 44 44 49 51 52 52 49 46 46 51 56 59 64 64 59 58 56 52 50 48 51 52 47 48 49 47 49 52 54 57 58 56 53 53 53 53 53
45 43 41 42 41 42 48 51 53 53 51 51 57 61 58 61 67 70 69 66 65 67 67 66 67 68 66 66 63 57 56 56 51 50 53 51 51 53 51 50 48 49 55 55 52 51 48 46 44 42 42 43 43 43 43 46 49 49 47 48 51 55 55 58 61 59 55 54 55 53 52 55 54 52 54 53 52 53 54 55 57 58 59 57 55 55 54 53
41 40 40 43 44 48 56 61 61 60 58 61 64 67 68 66 68 71 69 68 68 67 66 66 68 69 69 68 65 59 57 58 57 56 57 56 57 55 50 50 48 49 55 56 53 52 50 47 44 42 42 41 39 40 39 40 46 50 50 53 55 52 51 57 61 62 58 61 63 59 58 61 57 57 60 59 58 59 59 60 59 61 63 62 61 61 60 58
35 35 39 46 46 50 59 64 63 59 58 65 68 69 72 71 71 73 70 69 71 68 64 67 70 69 67 68 68 65 63 64 62 60 61 62 62 58 55 53 50 48 51 53 53 54 51 49 46 41 41 41 39 41 41 39 45 51 52 56 56 52 54 58 62 68 69 71 71 64 62 64 60 62 65 61 60 61 62 65 64 64 66 67 66 65 63 59
32 32 37 46 48 51 57 61 63 61 62 69 69 68 74 74 72 73 69 69 72 70 69 73 74 71 71 72 72 70 70 71 68 65 65 65 63 62 61 59 55 51 50 51 53 54 52 50 45 39 40 42 42 43 45 44 45 50 54 58 59 60 65 64 64 71 72 72 73 67 63 64 62 65 66 62 62 63 62 64 64 63 64 64 61 58 57 56
31 31 35 43 48 51 54 58 62 62 65 71 71 71 77 76 71 70 70 71 73 73 75 78 77 76 76 74 75 76 75 73 72 71 69 68 67 66 64 61 59 56 53 53 54 55 55 50 44 40 39 42 45 46 48 50 48 50 55 60 62 65 69 68 66 67 66 70 76 71 66 64 62 64 65 61 61 61 59 59 60 59 57 56 55 54 55 54
30 31 37 43 48 51 52 54 59 58 59 66 70 73 77 76 72 71 71 73 75 77 79 79 78 79 77 74 76 77 76 74 73 73 73 72 72 70 66 63 62 59 56 57 58 61 60 55 49 46 42 43 49 51 50 51 51 52 57 61 64 67 69 68 66 63 62 69 78 78 73 66 61 63 62 58 59 60 59 59 60 59 56 56 56 56 56 55
29 35 42 44 46 48 48 51 55 54 53 59 65 69 72 74 74 73 71 72 75 79 81 81 81 80 79 77 78 77 76 76 74 72 74 74 74 72 67 64 63 63 62 62 64 65 65 62 58 54 49 46 47 48 48 49 52 55 57 57 63 67 67 67 68 67 65 68 73 77 75 66 62 62 59 57 60 62 61 62 62 61 58 58 60 59 58 57
31 39 41 42 45 43 42 50 53 50 52 57 60 63 67 70 72 73 72 72 74 76 78 82 84 82 81 81 82 80 80 79 75 74 77 76 76 76 71 66 64 63 65 65 64 64 65 66 64 61 55 46 40 44 50 53 55 57 57 58 64 69 68 69 74 74 71 72 73 74 73 67 64 65 62 60 61 61 61 61 60 59 58 60 62 60 59 58
36 40 39 43 47 44 48 57 57 56 59 59 57 58 59 62 66 70 71 73 76 78 80 84 86 86 85 84 83 82 83 82 79 78 80 78 77 76 73 70 67 64 64 65 65 63 66 69 68 67 62 49 40 44 52 58 61 61 61 60 62 66 69 75 80 79 78 78 77 78 76 71 71 71 66 62 61 61 62 60 57 58 58 58 60 60 60 58
39 42 42 46 50 51 60 68 66 66 66 61 59 60 57 57 61 65 69 73 76 79 83 85 85 86 87 86 84 84 85 86 83 81 82 82 81 79 75 73 73 71 69 68 67 64 66 71 69 67 66 58 54 59 60 61 64 65 63 61 60 64 72 77 78 78 79 77 74 75 74 70 72 74 68 65 65 64 64 61 59 59 59 60 62 63 63 60
44 48 48 49 51 56 66 71 70 72 72 69 68 64 59 60 62 63 68 71 72 75 79 83 83 85 87 87 86 86 85 87 87 85 84 84 82 81 78 77 76 75 74 74 71 66 68 73 70 66 67 66 67 73 71 64 62 62 60 59 59 65 71 74 74 74 74 72 68 68 69 67 70 72 70 71 72 70 67 66 64 64 64 66 67 68 66 60
51 54 55 55 55 58 66 70 70 73 76 77 76 70 66 67 66 63 66 71 74 76 78 81 82 86 89 88 88 89 87 88 90 89 87 86 84 81 79 79 78 77 78 79 77 72 71 75 75 71 70 68 66 66 66 63 63 62 61 59 61 64 65 68 73 72 70 70 68 66 66 67 68 72 74 76 76 74 72 70 69 68 69 70 71 70 65 58
53 55 58 60 60 63 67 69 68 71 74 75 75 73 73 73 71 67 67 71 75 78 81 83 83 87 90 90 92 93 89 89 90 88 87 87 86 82 80 81 80 79 81 81 79 76 74 73 75 73 70 70 69 65 63 64 64 62 60 59 61 62 62 65 69 67 68 72 69 63 65 67 68 73 77 78 79 79 78 76 73 73 72 72 70 65 60 57
54 55 57 59 63 67 70 69 68 71 73 74 74 72 73 75 75 75 75 75 76 78 82 86 88 89 91 92 94 95 92 91 91 89 88 88 86 84 82 81 81 80 81 82 82 80 77 75 75 74 72 75 76 75 74 74 70 65 63 62 60 60 63 66 65 62 66 70 63 57 61 65 65 69 74 76 76 74 73 74 73 72 70 67 64 61 59 59
55 58 60 60 63 66 68 68 71 74 75 75 75 74 74 77 78 78 78 80 81 80 81 86 89 89 91 92 93 94 93 94 96 93 90 88 86 85 84 82 81 80 81 85 86 84 81 82 82 79 78 80 80 81 81 80 76 71 68 67 65 64 65 64 62 62 65 66 60 58 61 60 59 65 69 69 66 63 64 67 68 65 63 61 59 58 59 58
54 60 62 62 63 65 65 67 70 74 76 75 76 76 76 78 81 80 78 79 83 84 83 87 89 89 91 92 92 95 95 95 96 94 90 89 87 85 85 83 81 82 82 84 87 87 86 87 86 82 81 83 82 81 81 80 77 73 70 69 67 65 64 64 66 67 68 68 66 66 67 64 62 65 66 62 60 60 60 61 59 57 56 56 56 56 57 54
53 57 59 62 66 64 64 65 66 71 77 77 77 77 77 79 79 80 80 79 80 85 86 87 88 88 90 91 92 94 93 92 92 89 87 87 86 84 84 81 80 81 81 82 86 87 87 90 89 86 87 88 84 81 82 81 77 72 70 68 67 67 70 71 72 71 70 71 71 70 69 69 67 65 62 57 55 53 51 49 49 50 52 54 55 55 53 48
52 54 54 59 65 63 62 64 65 68 73 75 76 75 77 79 78 80 86 85 83 85 87 87 88 89 89 91 92 92 90 89 88 85 83 84 82 80 82 81 78 79 81 83 86 87 85 88 91 90 91 90 87 85 84 81 78 74 72 71 69 69 72 73 73 73 72 71 72 70 68 67 66 62 57 54 52 50 48 47 48 50 52 54 54 51 47 44